Tracking 19146 objects as of 24-Apr-2018
HD Live streaming from Space Station
objects crossing your sky now

FENGYUN 1C DEB

Track FENGYUN 1C DEB now!
10-day predictions


NORAD ID: 31160
Int'l Code: 1999-025BHN
Perigee: 863.5 km
Apogee: 947.2 km
Inclination: 99.3 °
Period: 103.0 minutes
Semi major axis: 7276 km
RCS: 0.0015 m2 (small)
Launch date: May 10, 1999
Source: People's Republic of China (PRC)
Launch site: Taiyaun Space Center, China (TSC)

Note: This is SATELLITE DEBRIS
aabbcc
Your satellite tracking list
Your tracking list is empty




NASA's NSSDC Master Catalog

Two Line Element Set (TLE):
1 31160U 99025BHN 18114.24573173  .00000024  00000-0  48813-4 0  9997
2 31160  99.3234 106.6999 0057548 330.2864  29.5034 13.98731994566721
Source of the keplerian elements: AFSPC